GFSFLT2_sfc_30mbdewp_324.txt.gz
Dewpoint
64 66 67 68 68 68 68 67 68 67 67 67 67 68 68 67 67 67 68 67 67 67 66 67 67 66 65 64 64 62 58 60
65 66 66 66 67 67 67 67 67 66 67 67 67 68 68 67 67 67 67 66 67 67 66 67 67 66 65 65 63 62 59 60
66 66 66 66 67 68 67 67 67 67 67 67 66 62 62 63 62 66 66 66 66 66 65 67 66 65 65 64 63 61 61 60
65 65 66 65 65 67 67 67 66 67 66 64 60 58 57 53 63 65 65 65 65 65 65 66 63 61 63 64 62 62 62 62
64 66 66 65 65 67 68 68 67 67 67 64 61 58 59 57 61 63 62 63 61 62 63 62 61 60 60 63 63 61 62 61
63 65 66 64 66 66 65 68 67 66 67 63 60 56 60 59 56 58 60 60 61 61 58 59 61 61 64 63 62 62 61 60
62 64 65 65 65 65 66 66 67 65 66 62 58 55 57 57 59 60 62 63 61 61 64 63 63 63 63 62 62 61 60 58
62 62 64 65 65 65 65 65 66 67 67 61 57 57 57 54 57 58 61 60 60 61 62 63 63 63 63 62 62 61 59 58
61 61 63 65 65 65 65 65 66 67 66 61 57 58 59 57 56 58 59 59 60 61 63 62 62 62 62 62 61 59 59 57
60 61 62 63 63 64 64 65 66 66 65 61 55 56 58 58 57 58 59 60 59 60 62 61 61 60 60 59 59 58 57 56
59 61 62 62 62 60 62 65 65 65 64 61 56 53 57 56 57 58 60 59 59 59 61 62 60 59 58 58 57 55 55 54
59 61 61 63 63 62 60 62 65 64 62 59 57 53 54 54 56 59 59 57 58 60 61 61 59 58 56 55 54 53 53 53
58 60 61 62 62 61 62 56 59 63 61 58 58 53 53 52 54 60 57 57 59 61 61 59 58 57 53 50 49 51 51 50
58 58 61 61 61 61 61 58 54 58 62 58 59 56 55 52 50 57 56 56 61 62 60 58 57 56 56 53 50 49 48 48
58 58 60 61 61 61 59 58 55 53 56 60 58 58 57 54 52 53 56 56 61 61 60 59 56 57 57 55 51 52 51 50
59 59 59 60 60 58 56 56 53 51 53 56 56 58 58 57 55 54 56 57 61 62 61 60 58 57 57 56 52 51 49 45
60 59 58 59 60 57 57 55 52 51 49 53 56 57 58 57 57 55 56 55 58 60 60 61 60 58 57 56 52 49 49 47
61 60 59 59 58 58 58 56 52 49 48 50 54 55 58 58 57 58 57 55 56 59 61 61 59 59 58 55 52 50 48 45
61 61 60 59 59 58 57 56 54 52 51 50 50 53 55 58 58 59 59 57 56 59 60 60 61 60 59 57 55 53 48 46
61 60 60 60 59 58 56 56 55 53 51 49 50 52 53 56 59 59 59 59 59 60 61 61 61 61 60 59 56 54 50 46

GFSFLT2_sfc_30mbdewp_327.txt.gz
Dewpoint
63 65 67 68 68 68 68 68 68 67 67 66 67 66 67 66 66 66 67 68 68 67 67 67 67 65 64 64 62 62 59 60
64 66 66 66 67 68 68 68 68 68 68 66 66 67 68 67 66 66 67 67 67 67 67 67 66 64 64 63 63 60 59 61
66 66 66 67 67 68 68 68 68 67 67 66 66 65 66 65 66 67 67 67 66 67 67 66 65 64 64 64 62 60 61 62
65 66 66 66 67 67 67 67 67 66 67 66 64 62 62 63 66 66 67 67 66 67 67 65 62 60 62 63 62 62 62 61
64 66 66 66 67 68 67 67 67 67 67 64 61 57 57 60 64 63 64 64 62 64 65 61 58 58 60 63 63 61 60 60
64 64 65 65 67 68 67 67 67 67 66 65 59 55 56 56 56 58 62 61 61 61 62 61 61 62 63 62 62 61 60 59
61 62 64 65 66 68 68 67 66 66 64 63 61 57 58 54 56 60 60 60 60 59 59 62 62 63 63 62 62 61 59 58
60 61 64 65 65 66 68 68 66 66 64 63 62 56 60 59 59 60 60 61 61 60 60 62 64 64 63 63 62 61 59 58
60 61 64 65 65 65 67 67 67 66 65 61 60 59 59 60 60 61 63 59 63 62 63 64 64 63 63 62 62 60 59 57
60 60 63 65 65 66 67 66 67 67 66 62 58 59 57 58 59 60 61 62 61 63 63 63 62 62 62 61 60 59 58 57
59 60 62 65 66 65 65 66 66 67 66 62 59 60 59 57 56 58 60 58 61 62 62 62 61 60 59 59 58 57 57 55
58 60 61 64 65 64 64 65 66 67 65 63 58 59 60 60 56 57 57 56 58 59 62 62 60 59 57 56 56 56 55 54
58 60 61 63 62 62 63 63 64 65 65 63 60 57 58 59 58 61 59 57 57 62 62 61 59 57 53 52 51 53 54 54
56 61 62 62 62 60 58 58 64 64 65 63 62 56 57 58 57 60 61 55 58 62 61 60 58 57 56 54 51 51 51 52
55 61 61 62 62 61 59 55 58 63 62 63 62 58 55 56 57 59 59 57 60 63 61 59 57 57 58 55 53 52 53 52
55 60 61 62 62 60 58 57 53 55 61 59 59 58 55 55 55 58 60 57 62 63 62 60 58 57 59 57 57 55 52 50
57 59 61 61 62 60 59 58 56 53 58 60 59 58 58 55 55 56 59 58 62 63 62 61 60 58 58 58 57 54 53 50
59 60 60 61 61 60 59 58 57 54 52 59 58 59 59 58 56 57 59 59 61 63 63 62 61 60 59 58 56 54 52 50
60 60 60 61 61 60 60 59 58 55 53 54 59 57 58 59 59 59 59 60 58 62 62 62 62 61 60 59 57 55 54 51
58 60 60 60 60 60 60 59 58 55 54 52 58 57 58 60 60 60 59 60 58 59 61 62 62 62 62 61 58 57 54 51

GFSFLT2_sfc_30mbdewp_330.txt.gz
Dewpoint
65 66 67 68 69 69 68 68 68 67 67 67 67 68 67 67 67 66 65 65 68 67 67 65 65 66 65 63 63 61 62 62
66 67 67 67 68 68 68 68 68 67 67 67 67 67 67 67 67 67 65 66 66 67 66 65 66 64 63 63 62 62 62 62
66 66 67 67 68 68 68 68 67 67 66 66 67 67 66 66 65 65 66 67 67 67 66 66 64 64 64 63 62 62 61 61
66 67 67 67 68 68 68 68 68 68 68 67 66 67 66 64 65 66 67 67 67 67 66 64 62 63 63 63 62 62 61 60
65 65 67 67 68 69 68 68 68 67 67 66 66 66 65 66 66 66 66 66 65 65 65 61 59 62 63 63 63 61 60 59
63 65 67 67 68 68 67 67 67 66 65 65 65 63 65 66 65 64 62 62 64 64 63 60 59 62 63 63 61 60 59 59
61 64 67 68 68 67 67 66 66 66 64 65 65 60 61 62 62 62 61 62 63 63 62 62 61 62 63 62 61 59 59 58
61 62 67 67 67 67 66 66 67 65 64 65 64 59 58 57 58 62 62 62 62 62 63 63 62 63 63 62 60 59 58 58
62 61 66 66 67 67 67 66 66 64 64 63 62 62 60 57 58 61 62 62 61 62 64 63 64 63 63 62 60 59 58 57
62 61 63 66 67 67 67 66 66 64 63 62 63 61 60 60 62 61 61 63 63 63 64 63 63 63 62 60 60 59 58 57
61 62 64 65 66 66 67 66 66 65 63 62 61 60 56 61 61 62 63 64 65 64 63 63 62 62 61 59 59 58 58 57
61 61 64 65 66 66 66 66 66 65 64 64 61 59 58 60 60 61 61 64 64 63 62 62 61 59 57 57 57 57 56 56
60 60 63 64 65 65 64 64 65 65 65 64 61 62 59 58 57 60 60 62 62 62 62 61 59 56 53 52 52 53 55 55
59 61 63 63 65 65 64 64 65 65 64 62 62 62 61 61 61 62 60 62 62 63 61 60 57 56 54 53 51 52 52 54
58 61 62 62 63 64 64 64 65 64 63 62 62 61 62 62 61 61 60 60 62 63 61 59 57 57 56 56 53 52 53 53
57 61 61 62 63 61 62 63 62 63 62 61 60 59 61 62 60 61 59 61 63 63 61 59 58 57 58 58 58 56 53 51
57 61 62 62 62 62 61 58 62 63 63 61 59 61 61 61 60 62 59 61 63 62 61 60 60 58 59 58 59 57 54 51
57 61 62 62 62 62 61 59 58 62 62 61 59 59 59 58 58 60 61 60 64 63 62 62 60 59 59 60 58 56 54 51
58 61 61 62 62 61 61 60 59 59 61 61 60 58 58 57 56 57 61 60 64 63 63 62 63 61 60 60 60 58 56 52
47 58 61 62 62 61 61 60 60 58 59 60 59 59 58 57 57 56 58 60 62 63 63 63 63 62 61 61 60 59 57 53

GFSFLT2_sfc_30mbdewp_336.txt.gz
Dewpoint
68 69 69 69 69 69 69 68 68 68 68 68 68 68 68 69 68 68 68 68 68 66 65 65 65 64 64 64 63 62 61 60
67 68 69 68 68 68 68 68 67 67 68 67 66 66 68 68 68 68 68 67 67 66 65 65 65 64 65 64 63 61 60 59
66 67 67 68 68 68 68 68 67 67 67 67 66 66 67 67 67 68 68 67 67 65 65 64 64 65 64 63 61 60 59 59
66 66 67 67 68 68 67 67 67 66 66 66 67 67 67 66 63 61 66 66 66 65 64 64 64 63 63 62 60 59 59 58
66 66 67 67 67 67 67 67 67 66 66 65 66 67 67 66 64 62 65 66 65 64 64 63 63 64 62 61 59 59 59 57
66 67 67 67 66 66 66 65 65 66 66 66 66 66 66 65 64 63 63 65 65 63 64 62 64 63 61 59 58 58 58 57
65 67 67 66 65 65 66 66 66 66 66 67 67 66 65 64 64 63 64 65 63 62 62 61 64 62 60 58 58 58 57 57
64 67 67 67 65 65 66 66 66 66 66 66 67 65 64 63 64 63 64 64 62 61 61 63 63 62 59 58 58 57 57 56
63 67 67 66 66 65 66 66 66 66 66 66 66 66 64 63 63 62 62 63 63 62 62 64 62 61 59 58 58 57 56 55
63 66 67 66 65 66 66 67 66 66 65 65 65 66 65 63 62 61 61 62 63 62 63 63 62 60 58 58 57 57 56 55
62 65 66 66 65 65 66 66 65 65 64 64 64 65 64 63 61 60 61 62 63 63 63 63 62 60 59 58 57 56 56 55
62 65 66 66 65 65 65 65 64 64 63 64 64 64 63 60 61 58 63 62 63 63 63 63 61 60 59 57 57 57 56 55
61 64 66 66 64 63 64 63 63 63 62 63 63 63 63 61 62 59 64 63 63 63 63 62 60 58 56 55 54 54 56 56
44 51 65 65 65 63 64 64 63 63 62 62 63 63 63 60 59 62 64 63 63 63 62 59 58 59 56 54 53 54 54 54
42 46 53 65 64 64 64 64 63 62 62 61 62 62 60 57 56 55 61 62 63 62 61 59 57 57 56 54 52 52 53 54
42 46 51 63 65 64 63 62 61 61 61 61 61 61 59 58 59 59 60 61 63 62 61 59 57 56 56 56 55 53 52 51
41 45 49 55 61 63 63 62 63 62 62 61 61 60 59 60 60 61 58 61 63 63 61 59 59 56 55 56 56 54 53 52
39 42 45 49 54 57 62 62 62 62 61 61 61 61 59 59 60 59 60 61 63 63 62 60 58 57 57 56 56 55 54 51
37 40 42 45 50 55 58 62 62 61 62 61 61 61 61 58 57 56 61 62 63 63 62 61 59 57 57 57 57 57 55 52
36 38 41 43 46 50 54 56 63 62 61 61 61 60 61 59 56 56 60 61 62 63 62 60 59 58 58 58 58 58 57 52

GFSFLT2_sfc_30mbdewp_339.txt.gz
Dewpoint
68 69 69 70 70 70 69 69 68 68 68 67 67 67 68 69 69 68 68 68 66 66 66 66 66 65 64 63 62 61 59 59
68 68 69 69 69 69 68 68 68 67 67 67 67 67 67 68 68 69 68 67 66 65 65 66 65 65 64 63 62 60 59 58
67 68 68 68 68 68 68 68 67 66 66 67 67 67 67 67 67 68 67 66 65 65 65 64 65 64 63 62 60 59 58 57
66 67 67 67 68 68 68 67 67 66 67 66 66 67 66 66 65 67 67 66 65 65 64 65 64 63 62 61 59 59 58 57
65 66 67 67 66 67 67 67 66 66 66 66 66 67 66 65 64 66 66 65 64 64 64 64 63 62 61 59 59 58 58 56
65 66 66 66 65 66 66 66 66 66 66 66 66 66 66 64 61 63 65 64 63 63 63 64 63 61 60 59 58 58 57 56
65 66 65 66 65 66 66 66 66 65 65 65 66 65 65 65 62 61 64 65 63 63 62 64 62 60 59 58 58 57 57 56
65 66 65 65 64 65 65 65 65 66 65 65 65 65 65 65 64 61 63 64 62 62 62 63 61 59 58 58 57 57 56 55
64 66 65 65 64 65 66 65 65 65 66 66 66 66 65 64 64 62 61 64 62 62 64 63 61 60 58 58 57 56 55 54
47 66 65 65 64 65 65 66 66 65 66 66 66 66 65 64 64 63 63 62 63 62 63 62 60 59 58 57 57 56 55 54
46 64 65 64 65 64 65 65 66 66 66 65 66 66 65 63 63 62 61 60 62 62 63 61 60 59 58 57 56 56 55 54
43 48 65 65 65 64 65 65 65 65 65 65 65 65 64 63 62 60 62 62 62 62 63 62 60 59 57 57 56 56 55 54
41 45 48 59 64 64 64 63 64 64 64 64 65 65 64 62 62 60 62 61 61 62 63 61 60 58 56 55 55 56 55 54
39 43 47 51 62 64 63 63 64 63 64 64 64 64 62 60 57 60 62 61 63 62 61 61 58 58 56 55 53 54 55 55
37 41 44 49 57 64 64 64 63 62 62 62 63 63 61 58 55 60 62 62 62 62 61 60 58 59 57 55 52 52 54 54
37 40 43 47 49 60 63 62 60 61 61 62 62 63 63 62 59 60 62 63 62 62 62 60 58 57 57 56 55 53 52 52
36 39 41 45 47 51 59 62 61 61 62 61 62 61 62 60 60 57 59 61 62 62 62 60 59 58 57 56 56 54 53 52
35 37 40 42 45 48 52 61 62 61 61 60 60 61 61 59 58 57 58 59 61 62 62 60 59 58 57 55 55 54 53 51
35 36 38 40 43 45 48 52 58 62 60 60 60 60 60 58 57 56 56 59 58 61 62 60 60 59 58 56 56 56 55 52
34 35 36 38 40 43 45 49 53 61 61 60 60 60 60 59 58 57 57 59 59 61 61 61 60 60 59 58 57 57 56 53